THORAD AGENA D DEB, 4643

Orbit data source: Space-Track

THORAD AGENA D DEB, 4643 is space debris in SSO originally from a launch on Wed, 08 Apr 1970 UTC launched from the Air Force Western Test Range (AFWTR). Debris objects in space refer to the collection of defunct objects orbiting the Earth. Examples of debris include non-operational satellites, rocket bodies, and fragments generated from explosions, collisions, or faulty payload assembly.

Loading next visibility...
Identifier
4643, 1970-025AB
Orbit
SSO
Last TLE update
9 hours ago
Origin
Manufacturer
Unknown
Mission
Spacecraft
Bus & Motor
Unknown
Mass
Unknown
Launch date (UTC)
1970-04-08 (55 years ago)
Launch vehicle
Unknown
Launch site
Air Force Western Test Range (AFWTR)
Object type
Payload
Rocket body
Debris
Shape & HBR
Unknown
Radar Cross Section
Small (<0.1 m²)

Expand to show TLE details & history

TLE from 9 hours ago
0 THORAD AGENA D DEB
1 04643U 70025AB  25128.85978307  .00000199  00000-0  35017-3 0  9994
2 04643  99.4371 351.1646 0010814 156.4340 268.3049 13.55074701717049
Epoch: 2025-05-08T20:38Z
Definitive object data (Epoch: 2025-05-08T20:38:05.257Z)
Latitude
63.11694°
Longitude
155.68139°
Altitude
1,064.668 km
Speed
7.325 km/s
True Right ascension
22h 08m 30s
True Declination
62° 59' 01"
Sunlit
Object was in daylight at TLE epoch
Visualization TLE readout
Latitude
51.56988°
Longitude
7.11237°
Altitude
1,054.774 km
Speed
7.333 km/s
Apparent Right ascension
06h 37m 13s
Apparent Declination
39° 00' 20"
Sunlit
Object is in daylight
Visualization observer readout
Local Sidereal Time
13:56:59
Azimuth
311.786° NW
Elevation
11.57°
Doppler factor
1
Orbital elements
Apogee altitude
1,058.961 km
Perigee altitude
1,042.893 km
Semi-major axis
7,429.064 km
Eccentricity
0.0010814
Inclination
99.4371°
RAAN
351.1646°
Arg. of periapsis
156.434°
True anomaly
268.18104°
Mean anomaly
268.3049°
Eccentric anomaly
268.24297°
Mean motion
3.38955 °/min
BSTAR
0.00035017
Orbital period
106.21 mins
Loading maneuver chart data...
Loading SW <> Apogee altitude chart data...

THORAD AGENA D DEB Visibility forecast

Observer location: undefined°, undefined°

Span
Click to sort rows by Start time (UTC) header in descending order
Start Az.
Max El. time (UTC)
Max El. Az.
Max El.
End time (UTC)
End Az.
10 mins2025-05-09 14:10:15.633Z139.154° SSE2025-05-09 14:14:15.633Z85.799° E38.587°2025-05-09 14:20:15.633Z356.69° N
8 mins2025-05-09 15:56:15.633Z224.49° SW2025-05-09 16:00:15.633Z272.361° WNW22.415°2025-05-09 16:04:15.633Z314.599° NW
10 mins2025-05-10 03:03:15.633Z32.608° NE2025-05-10 03:08:15.633Z102.449° ESE34.86°2025-05-10 03:13:15.633Z166.606° S
9 mins2025-05-10 04:48:15.633Z348.885° N2025-05-10 04:52:15.633Z303.17° NW27.009°2025-05-10 04:57:15.633Z241.924° WSW
|